Weather History for Princeton, MN

Change the Weather History Date:

Saturday, March 2, 2013

  Actual Average Record
Temperature  
Mean Temperature 12 °F -  
Max Temperature 28 °F 28 °F 78 °F (1999)
Min Temperature -5 °F 11 °F -16 °F (2014)
Degree Days  
Heating Degree Days 54    
Moisture  
Dew Point 4 °F    
Average Humidity 65    
Maximum Humidity 92    
Minimum Humidity 37    
Precipitation  
Precipitation 0.00 in - - ()
Sea Level Pressure  
Sea Level Pressure 30.26 in    
Wind  
Wind Speed 0 mph (East)    
Max Wind Speed 6 mph    
Max Gust Speed -    
Visibility 10 miles    
Events      
Averages and records for this station are not official NWS values.
T = Trace of Precipitation, MM = Missing Value Source: NWS Daily Summary

Daily Weather History Graph

Daily Weather History Graph

Search for Another Location

Airport:

Trip Planner

Search our weather history database for the weather conditions in past years. The results will help you decide how hot, cold, wet, or windy it might be!

Date:

Astronomy

Mar. 02, 2013 Rise Set
Actual Time 6:50 AM CST 6:03 PM CST
Civil Twilight 6:20 AM CST 6:32 PM CST
Nautical Twilight 5:46 AM CST 7:07 PM CST
Astronomical Twilight 5:12 AM CST 7:41 PM CST
Moon No Moon Rise 9:01 AM CST (3/2)
Length of Visible Light 12h 12m
Length of Day
11h 12m
Waning Gibbous, 74% of the Moon is Illuminated
Mar 2
Waning Gibbous
Mar 4
Last Quarter
Mar 11
New
Mar 19
First Quarter
Mar 27
Full

Hourly Weather History & Observations

Time (CST) Temp. Windchill Dew Point Humidity Pressure Visibility Wind Dir Wind Speed Gust Speed Precip Events Conditions
12:31 AM 3.2 °F - 1.4 °F 92% 30.33 in 10.0 mi Calm Calm - N/A   Clear
12:51 AM 3.2 °F - 1.4 °F 92% 30.33 in 10.0 mi Calm Calm - N/A   Clear
1:11 AM 3.2 °F - 1.4 °F 92% 30.33 in 10.0 mi Calm Calm - N/A   Clear
1:31 AM 3.2 °F - -0.4 °F 85% 30.33 in 10.0 mi Calm Calm - N/A   Clear
1:51 AM 1.4 °F - -2.2 °F 85% 30.33 in 10.0 mi Calm Calm - N/A   Clear
2:11 AM 3.2 °F - -0.4 °F 85% 30.33 in 10.0 mi Calm Calm - N/A   Clear
2:31 AM -0.4 °F - -4.0 °F 85% 30.33 in 10.0 mi Calm Calm - N/A   Clear
2:51 AM 1.4 °F - -2.2 °F 85% 30.33 in 10.0 mi Calm Calm - N/A   Clear
3:11 AM -2.2 °F - -5.8 °F 85% 30.32 in 10.0 mi Calm Calm - N/A   Clear
3:31 AM -0.4 °F - -5.8 °F 78% 30.33 in 10.0 mi Calm Calm - N/A   Clear
3:51 AM -0.4 °F - -5.8 °F 78% 30.33 in 10.0 mi Calm Calm - N/A   Clear
4:11 AM -0.4 °F - -5.8 °F 78% 30.33 in 10.0 mi Calm Calm - N/A   Clear
4:31 AM -2.2 °F - -5.8 °F 85% 30.33 in 10.0 mi Calm Calm - N/A   Clear
4:51 AM -2.2 °F - -5.8 °F 85% 30.32 in 10.0 mi Calm Calm - N/A   Clear
5:11 AM -2.2 °F - -7.6 °F 78% 30.32 in 10.0 mi Calm Calm - N/A   Clear
5:31 AM -2.2 °F - -5.8 °F 85% 30.32 in 10.0 mi Calm Calm - N/A   Clear
5:51 AM -2.2 °F - -7.6 °F 78% 30.32 in 10.0 mi Calm Calm - N/A   Clear
6:11 AM -2.2 °F - -7.6 °F 78% 30.33 in 10.0 mi Calm Calm - N/A   Clear
6:31 AM -5.8 °F - -9.4 °F 84% 30.34 in 10.0 mi Calm Calm - N/A   Clear
6:51 AM -5.8 °F - -9.4 °F 84% 30.34 in 10.0 mi Calm Calm - N/A   Clear
7:11 AM -4.0 °F - -9.4 °F 78% 30.34 in 10.0 mi Calm Calm - N/A   Clear
7:31 AM -5.8 °F - -9.4 °F 84% 30.33 in 10.0 mi Calm Calm - N/A   Clear
7:51 AM -2.2 °F - -7.6 °F 78% 30.33 in 10.0 mi Calm Calm - N/A   Clear
8:11 AM -0.4 °F - -4.0 °F 85% 30.33 in 10.0 mi Calm Calm - N/A   Clear
8:31 AM 6.8 °F - 3.2 °F 85% 30.33 in 10.0 mi Calm Calm - N/A   Clear
8:51 AM 8.6 °F - 5.0 °F 85% 30.32 in 10.0 mi Calm Calm - N/A   Clear
9:11 AM 10.4 °F 4.0 °F 6.8 °F 85% 30.31 in 10.0 mi ENE 3.5 mph - N/A   Clear
9:31 AM 14.0 °F 8.2 °F 10.4 °F 86% 30.31 in 10.0 mi ENE 3.5 mph - N/A   Clear
9:51 AM 15.8 °F - 8.6 °F 73% 30.31 in 10.0 mi Calm Calm - N/A   Clear
10:11 AM 17.6 °F 9.3 °F 8.6 °F 68% 30.30 in 10.0 mi East 5.8 mph - N/A   Clear
10:31 AM 19.4 °F 14.3 °F 8.6 °F 63% 30.30 in 10.0 mi East 3.5 mph - N/A   Clear
10:51 AM 19.4 °F 11.5 °F 8.6 °F 63% 30.29 in 10.0 mi ESE 5.8 mph - N/A   Clear
11:11 AM 21.2 °F 14.9 °F 8.6 °F 58% 30.29 in 10.0 mi SE 4.6 mph - N/A   Clear
11:31 AM 21.2 °F 16.4 °F 8.6 °F 58% 30.29 in 10.0 mi SE 3.5 mph - N/A   Clear
11:51 AM 21.2 °F - 8.6 °F 58% 30.29 in 10.0 mi Calm Calm - N/A   Clear
12:32 PM 23.0 °F - 8.6 °F 54% 30.27 in 10.0 mi Calm Calm - N/A   Clear
12:51 PM 24.8 °F - 8.6 °F 50% 30.26 in 10.0 mi Calm Calm - N/A   Clear
1:11 PM 24.8 °F - 8.6 °F 50% 30.25 in 10.0 mi Calm Calm - N/A   Clear
1:32 PM 24.8 °F - 6.8 °F 46% 30.25 in 10.0 mi Calm Calm - N/A   Clear
1:51 PM 24.8 °F - 6.8 °F 46% 30.24 in 10.0 mi Calm Calm - N/A   Clear
2:11 PM 26.6 °F - 6.8 °F 43% 30.23 in 10.0 mi Calm Calm - N/A   Clear
2:32 PM 26.6 °F - 6.8 °F 43% 30.23 in 10.0 mi Calm Calm - N/A   Clear
2:51 PM 26.6 °F - 6.8 °F 43% 30.22 in 10.0 mi Calm Calm - N/A   Clear
3:11 PM 26.6 °F - 6.8 °F 43% 30.22 in 10.0 mi Calm Calm - N/A   Clear
3:31 PM 26.6 °F - 6.8 °F 43% 30.21 in 10.0 mi Calm Calm - N/A   Clear
3:51 PM 28.4 °F - 6.8 °F 40% 30.21 in 10.0 mi Calm Calm - N/A   Clear
4:11 PM 28.4 °F - 6.8 °F 40% 30.22 in 10.0 mi Calm Calm - N/A   Clear
4:31 PM 28.4 °F - 5.0 °F 37% 30.21 in 10.0 mi Calm Calm - N/A   Clear
4:51 PM 26.6 °F - 5.0 °F 40% 30.20 in 10.0 mi Calm Calm - N/A   Scattered Clouds
5:11 PM 26.6 °F - 6.8 °F 43% 30.20 in 10.0 mi Calm Calm - N/A   Scattered Clouds
5:31 PM 23.0 °F - 8.6 °F 54% 30.20 in 10.0 mi Calm Calm - N/A   Mostly Cloudy
5:51 PM 24.8 °F - 8.6 °F 50% 30.21 in 10.0 mi Calm Calm - N/A   Overcast
6:11 PM 23.0 °F 18.4 °F 10.4 °F 59% 30.20 in 10.0 mi NNE 3.5 mph - N/A   Overcast
6:31 PM 24.8 °F - 8.6 °F 50% 30.20 in 10.0 mi Calm Calm - N/A   Overcast
6:51 PM 24.8 °F - 8.6 °F 50% 30.20 in 10.0 mi Calm Calm - N/A   Overcast
7:11 PM 23.0 °F - 10.4 °F 59% 30.19 in 10.0 mi Calm Calm - N/A   Overcast
7:31 PM 24.8 °F - 8.6 °F 50% 30.19 in 10.0 mi Calm Calm - N/A   Overcast
7:51 PM 23.0 °F - 8.6 °F 54% 30.19 in 10.0 mi Calm Calm - N/A   Overcast
8:11 PM 23.0 °F - 8.6 °F 54% 30.18 in 10.0 mi Calm Calm - N/A   Overcast
8:31 PM 23.0 °F - 8.6 °F 54% 30.18 in 10.0 mi Calm Calm - N/A   Overcast
8:51 PM 23.0 °F - 8.6 °F 54% 30.17 in 10.0 mi Calm Calm - N/A   Overcast
9:11 PM 23.0 °F - 8.6 °F 54% 30.17 in 10.0 mi Calm Calm - N/A   Overcast
9:30 PM 21.2 °F - 8.6 °F 58% 30.17 in 10.0 mi Calm Calm - N/A   Overcast
9:51 PM 21.2 °F - 6.8 °F 54% 30.17 in 10.0 mi Calm Calm - N/A   Overcast
10:11 PM 21.2 °F - 8.6 °F 58% 30.16 in 10.0 mi Calm Calm - N/A   Overcast
10:31 PM 21.2 °F - 8.6 °F 58% 30.16 in 10.0 mi Calm Calm - N/A   Overcast
10:51 PM 21.2 °F - 8.6 °F 58% 30.16 in 10.0 mi Calm Calm - N/A   Overcast
11:11 PM 21.2 °F - 8.6 °F 58% 30.16 in 10.0 mi Calm Calm - N/A   Overcast
11:31 PM 19.4 °F - 8.6 °F 63% 30.15 in 10.0 mi Calm Calm - N/A   Overcast
11:51 PM 19.4 °F - 8.6 °F 63% 30.14 in 10.0 mi Calm Calm - N/A   Overcast